Погода в Кудеихе

Россия / Чувашская Республика     55°13′38″N   46°25′17″E
темп.,
°C
ветер,
м/с
пор.,
м/с
влажн.,
%
обл.,
%
осадки,
мм/ч
давл.,
гПа
погр.,
м
28 июля, ср
ср2800:00+14с11728 0.0 101712
03:00+13св117475 0.0 101721
06:00+16с12715 0.0 1017105
09:00+21с23475 0.0 1017836
12:00+24ссз343821 0.0 10161801
15:00+25сз34340 0.0 10152194
18:00+23сз12490 0.0 1014109
21:00+17ююв22605 0.0 101411
29 июля, чт
чт2900:00+15ююв3367100 0.0 101356
03:00+15ююв3665100 0.0 1012110
06:00+17юз41181100 0.2 1011418
09:00+16ю3898100 1.4 1010370
12:00+16ююв31097100 3.3 1008417
15:00+18юв3894100 5.1 1006338
18:00+19вюв249733 4.1 1003152
21:00+17зсз269992 4.4 1004179
30 июля, пт
пт3000:00+16зсз399859 0.0 1005279
03:00+15з399889 0.0 1006240
06:00+17зюз2795100 0.0 1006229
09:00+22з4772100 0.0 1006570
12:00+26з5753100 0.0 10061450
15:00+28з474791 0.0 10051878
18:00+20сз61091100 2.4 1006277
21:00+18ююв2598100 7.0 1006165
31 июля, сб
сб3100:00+18ююз2698100 1.1 1005191
03:00+18ююз2798100 1.3 1005209
06:00+18юз369640 0.1 1005320
09:00+21з468163 0.1 1005751
12:00+25зсз576419 0.4 10051357
15:00+27зсз594214 0.8 10052451
18:00+25зсз495290 0.0 1006667
21:00+19ююз33664 0.0 100740
1 августа, вс
вс100:00+19юз246555 0.0 100872
03:00+17зюз22705 0.0 100930
06:00+18зюз127172 0.0 101080
09:00+24з23508 0.0 1011621
12:00+28зюз353865 0.0 10101662
15:00+29зюз463644 0.0 10091917
18:00+26ю36545 0.0 1009204
21:00+21ююв39660 0.0 1008156